Погода в Энчёпинге

Швеция     59°38′35″N   17°05′23″E
темп.,
°C
ветер,
м/с
пор.,
м/с
влажн.,
%
обл.,
%
осадки,
мм/ч
давл.,
гПа
погр.,
м
11 апреля, вс
вс1123:00+2юз311570 0.0 1013350
02:000зюз28730 0.0 1015194
05:00−1зюз11770 0.0 101716
08:00+3ююз236880 0.0 1019201
11:00+6ююв2450100 0.0 1020706
14:00+7юв3443100 0.0 10201114
17:00+6вюв4760100 0.0 1019923
20:00+2в3983100 0.1 1018663
12 апреля, пн
пн1223:000св41196100 0.7 1017641
02:00+1св41096100 1.6 1015535
05:00+1ссв3998100 3.4 1012296
08:00+1ссв3898100 8.5 1010282
11:00+2с2496100 1.6 1011291
14:00+2зсз2395100 1.6 1012387
17:00+2з2497100 0.0 1013489
20:00+2зюз1598100 0.1 1015520
13 апреля, вт
вт1323:00+2зюз1598100 0.1 1015419
02:00+1юз2796100 0.3 1015467
05:00+1ююз2894100 0.0 1015476
08:00+1зюз2598100 0.3 1015304
11:00+3зсз358090 0.2 1017865
14:00+5зсз466492 0.5 10191347
17:00+5зсз456154 0.3 10201299
20:00+2зсз228446 0.5 102237
14 апреля, ср
ср1423:000сз23885 0.0 102561
02:00−1ссз28825 0.0 1026173
05:00−2ссз28825 0.0 1028176
08:00+1ссз38660 0.0 1030395
11:00+5с35495 0.0 10311514
14:00+7ссз344698 0.0 10311872
17:00+7ссз344875 0.0 10311618
20:00+3сз22755 0.0 103211
15 апреля, чт
чт1523:00+1ссз22760 0.0 103321
02:000сз22810 0.0 103323
05:000с24860 0.0 103467
08:00+4с25680 0.0 1035199
11:00+8с46485 0.0 1036972
14:00+11с464851 0.0 10361722
17:00+10ссв465365 0.0 10361416
20:00+5ссв24765 0.0 103789